• In Switzerland
  • List of Countries
  • For 7 days
  • Water Temperature
  • Satellite Maps
  • Weather Map
  • Weather Widgets
  • user-avatar
    Login

    Hourly Weather Juigalpa

    Today, 22 January, Monday

    Time Temperature Precipitation Wind Pressure Humidity
    00:00 +25°C° 0.1 mm 3 mps 751 mmHg 90%
    01:00 +25°C° 0.1 mm 3 mps 750 mmHg 90%
    02:00 +25°C° 0.1 mm 3 mps 750 mmHg 90%
    03:00 +24°C° 0.1 mm 3 mps 750 mmHg 91%
    04:00 +24°C° 0 mm 3 mps 750 mmHg 91%
    05:00 +24°C° 0 mm 3 mps 750 mmHg 91%
    06:00 +23°C° 0 mm 4 mps 750 mmHg 91%
    07:00 +26°C° 0 mm 4 mps 750 mmHg 84%
    08:00 +27°C° 0 mm 5 mps 751 mmHg 78%
    09:00 +29°C° 0 mm 6 mps 751 mmHg 71%
    10:00 +30°C° 0 mm 6 mps 751 mmHg 66%
    11:00 +32°C° 0 mm 7 mps 750 mmHg 61%
    12:00 +33°C° 0 mm 7 mps 750 mmHg 56%
    13:00 +33°C° 0.1 mm 7 mps 749 mmHg 57%
    14:00 +33°C° 0.1 mm 7 mps 748 mmHg 57%
    15:00 +33°C° 0.1 mm 7 mps 748 mmHg 58%
    16:00 +32°C° 0.1 mm 6 mps 748 mmHg 64%
    17:00 +30°C° 0.1 mm 5 mps 748 mmHg 70%
    18:00 +28°C° 0.1 mm 4 mps 749 mmHg 76%
    19:00 +27°C° 0.1 mm 4 mps 749 mmHg 80%
    20:00 +26°C° 0.1 mm 4 mps 750 mmHg 84%
    21:00 +26°C° 0.1 mm 4 mps 751 mmHg 88%
    22:00 +25°C° 0.1 mm 4 mps 750 mmHg 89%
    23:00 +25°C° 0.1 mm 4 mps 750 mmHg 90%

    Tomorrow, 23 January, Tuesday

    Time Temperature Precipitation Wind Pressure Humidity
    00:00 +25°C° 0.1 mm 4 mps 750 mmHg 91%
    01:00 +25°C° 0.1 mm 4 mps 750 mmHg 90%
    02:00 +25°C° 0.1 mm 4 mps 750 mmHg 90%
    03:00 +25°C° 0.1 mm 4 mps 749 mmHg 90%
    04:00 +25°C° 0.1 mm 4 mps 750 mmHg 90%
    05:00 +25°C° 0.1 mm 4 mps 750 mmHg 89%
    06:00 +25°C° 0.1 mm 5 mps 750 mmHg 89%
    07:00 +26°C° 0 mm 6 mps 751 mmHg 83%
    08:00 +27°C° 0 mm 6 mps 751 mmHg 78%
    09:00 +29°C° 0 mm 7 mps 752 mmHg 72%
    10:00 +29°C° 0 mm 8 mps 752 mmHg 69%
    11:00 +31°C° 0 mm 8 mps 751 mmHg 66%
    12:00 +32°C° 0 mm 8 mps 751 mmHg 63%
    13:00 +31°C° 0 mm 8 mps 750 mmHg 66%
    14:00 +31°C° 0 mm 8 mps 749 mmHg 68%
    15:00 +29°C° 0 mm 7 mps 749 mmHg 70%
    16:00 +28°C° 0.1 mm 7 mps 749 mmHg 74%
    17:00 +28°C° 0.1 mm 6 mps 749 mmHg 78%
    18:00 +27°C° 0.1 mm 6 mps 750 mmHg 82%
    19:00 +26°C° 0 mm 6 mps 750 mmHg 82%
    20:00 +26°C° 0 mm 6 mps 751 mmHg 83%
    21:00 +26°C° 0 mm 5 mps 752 mmHg 83%
    22:00 +26°C° 0 mm 5 mps 751 mmHg 83%
    23:00 +25°C° 0 mm 5 mps 751 mmHg 83%

    Day after tomorrow, 24 January, Wednesday

    Time Temperature Precipitation Wind Pressure Humidity
    00:00 +25°C° 0 mm 5 mps 751 mmHg 83%
    01:00 +25°C° 0 mm 5 mps 751 mmHg 84%
    02:00 +25°C° 0 mm 5 mps 750 mmHg 85%
    03:00 +23°C° 0 mm 5 mps 750 mmHg 87%
    04:00 +23°C° 0 mm 5 mps 750 mmHg 86%
    05:00 +23°C° 0 mm 5 mps 751 mmHg 86%
    06:00 +23°C° 0 mm 5 mps 751 mmHg 86%
    07:00 +26°C° 0 mm 6 mps 751 mmHg 80%
    08:00 +27°C° 0 mm 7 mps 752 mmHg 74%
    09:00 +29°C° 0 mm 8 mps 753 mmHg 68%
    10:00 +31°C° 0.1 mm 8 mps 752 mmHg 64%
    11:00 +32°C° 0.1 mm 8 mps 751 mmHg 61%
    12:00 +33°C° 0.1 mm 8 mps 751 mmHg 57%
    13:00 +32°C° 0.4 mm 8 mps 750 mmHg 62%
    14:00 +30°C° 0.4 mm 7 mps 750 mmHg 66%
    15:00 +29°C° 0.4 mm 7 mps 749 mmHg 71%
    16:00 +28°C° 0.1 mm 7 mps 749 mmHg 74%
    17:00 +27°C° 0.1 mm 6 mps 750 mmHg 78%
    18:00 +26°C° 0.1 mm 5 mps 750 mmHg 81%
    19:00 +26°C° 0 mm 5 mps 751 mmHg 83%
    20:00 +25°C° 0 mm 5 mps 751 mmHg 85%
    21:00 +25°C° 0 mm 5 mps 752 mmHg 87%
    22:00 +25°C° 0 mm 5 mps 752 mmHg 87%
    23:00 +23°C° 0 mm 5 mps 752 mmHg 87%

    25 January, Thursday

    Time Temperature Precipitation Wind Pressure Humidity
    00:00 +23°C° 0 mm 5 mps 751 mmHg 86%
    01:00 +23°C° 0 mm 5 mps 751 mmHg 87%
    02:00 +23°C° 0 mm 5 mps 751 mmHg 87%
    03:00 +22°C° 0 mm 5 mps 750 mmHg 87%
    04:00 +23°C° 0 mm 5 mps 751 mmHg 87%
    05:00 +23°C° 0 mm 6 mps 751 mmHg 87%
    06:00 +23°C° 0 mm 6 mps 752 mmHg 86%
    07:00 +24°C° 0 mm 7 mps 752 mmHg 80%
    08:00 +27°C° 0 mm 8 mps 752 mmHg 74%
    09:00 +28°C° 0 mm 8 mps 753 mmHg 68%
    10:00 +29°C° 0 mm 8 mps 752 mmHg 64%
    11:00 +32°C° 0 mm 8 mps 752 mmHg 59%
    12:00 +33°C° 0 mm 8 mps 751 mmHg 55%
    13:00 +33°C° 0.1 mm 8 mps 750 mmHg 55%
    14:00 +33°C° 0.1 mm 8 mps 750 mmHg 56%
    15:00 +32°C° 0.1 mm 8 mps 749 mmHg 56%
    16:00 +30°C° 0 mm 7 mps 749 mmHg 61%
    17:00 +29°C° 0 mm 6 mps 750 mmHg 66%
    18:00 +27°C° 0 mm 5 mps 750 mmHg 72%
    19:00 +27°C° 0 mm 5 mps 751 mmHg 75%
    20:00 +26°C° 0 mm 6 mps 751 mmHg 79%
    21:00 +24°C° 0 mm 6 mps 752 mmHg 82%
    22:00 +24°C° 0 mm 6 mps 752 mmHg 84%
    23:00 +24°C° 0 mm 6 mps 751 mmHg 85%

    26 January, Friday

    Time Temperature Precipitation Wind Pressure Humidity
    00:00 +23°C° 0 mm 6 mps 751 mmHg 87%
    01:00 +24°C° 0 mm 6 mps 751 mmHg 86%
    02:00 +24°C° 0 mm 6 mps 750 mmHg 86%
    03:00 +24°C° 0 mm 6 mps 750 mmHg 85%
    04:00 +24°C° 0.1 mm 6 mps 750 mmHg 85%
    05:00 +24°C° 0.1 mm 6 mps 751 mmHg 85%
    06:00 +24°C° 0.1 mm 6 mps 751 mmHg 85%
    07:00 +26°C° 0.1 mm 6 mps 751 mmHg 82%
    08:00 +27°C° 0.1 mm 7 mps 752 mmHg 79%
    09:00 +28°C° 0.1 mm 7 mps 752 mmHg 76%
    10:00 +29°C° 0.1 mm 7 mps 751 mmHg 71%
    11:00 +31°C° 0.1 mm 8 mps 751 mmHg 65%
    12:00 +32°C° 0.1 mm 8 mps 750 mmHg 60%
    13:00 +32°C° 0.1 mm 7 mps 750 mmHg 59%
    14:00 +33°C° 0.1 mm 7 mps 749 mmHg 58%
    15:00 +33°C° 0.1 mm 7 mps 748 mmHg 58%
    16:00 +30°C° 0 mm 6 mps 748 mmHg 64%
    17:00 +29°C° 0 mm 6 mps 749 mmHg 71%
    18:00 +27°C° 0 mm 5 mps 749 mmHg 78%
    19:00 +27°C° 0.1 mm 5 mps 750 mmHg 81%
    20:00 +26°C° 0.1 mm 5 mps 750 mmHg 85%
    21:00 +26°C° 0.1 mm 5 mps 751 mmHg 89%
    22:00 +25°C° 0.1 mm 5 mps 751 mmHg 89%
    23:00 +25°C° 0.1 mm 5 mps 750 mmHg 89%

    27 January, Saturday

    Time Temperature Precipitation Wind Pressure Humidity
    00:00 +24°C° 0.1 mm 6 mps 750 mmHg 89%
    01:00 +25°C° 0.1 mm 5 mps 750 mmHg 89%
    02:00 +25°C° 0.1 mm 5 mps 750 mmHg 88%
    03:00 +25°C° 0.1 mm 5 mps 749 mmHg 88%
    04:00 +25°C° 0.1 mm 5 mps 750 mmHg 88%
    05:00 +25°C° 0.1 mm 5 mps 750 mmHg 88%
    06:00 +25°C° 0.1 mm 5 mps 750 mmHg 89%
    07:00 +26°C° 0.1 mm 5 mps 751 mmHg 85%
    08:00 +27°C° 0.1 mm 6 mps 751 mmHg 80%
    09:00 +28°C° 0.1 mm 6 mps 752 mmHg 76%
    10:00 +29°C° 0.1 mm 6 mps 751 mmHg 71%
    11:00 +30°C° 0.1 mm 6 mps 750 mmHg 66%
    12:00 +32°C° 0.1 mm 6 mps 750 mmHg 61%
    13:00 +33°C° 0.1 mm 6 mps 749 mmHg 60%
    14:00 +33°C° 0.1 mm 6 mps 749 mmHg 59%
    15:00 +33°C° 0.1 mm 6 mps 748 mmHg 58%
    16:00 +30°C° 0.1 mm 6 mps 748 mmHg 65%
    17:00 +29°C° 0.1 mm 5 mps 749 mmHg 72%
    18:00 +27°C° 0.1 mm 5 mps 749 mmHg 79%
    19:00 +27°C° 0 mm 4 mps 750 mmHg 82%
    20:00 +26°C° 0 mm 4 mps 750 mmHg 85%
    21:00 +25°C° 0 mm 4 mps 751 mmHg 89%
    22:00 +25°C° 0 mm 4 mps 751 mmHg 89%
    23:00 +25°C° 0 mm 4 mps 751 mmHg 89%
    Show more